INTELSAT 805 (IS-805) (25371 NORAD) Tracking and Keplerian Element Data

This shows tracking and keplerian element data for the satellite.

Feedback or suggestion? Click here.




ElementValue
Catalog25371
NameINTELSAT 805 (IS-805)
Epoch Orbit7358
Epoch Day201.53228385
Epoch Year2018
RAAN92.9737
Inclination0.8699
Eccentricity0.0003453
Argument of Perigee32.984
Mean Anonmoly172.9031
Mean Motion1.00273049
Decay Rate-4.7E-07
L11 25371U 98037A 18201.53228385 -.00000047 00000-0 00000-0 0 9995
L22 25371 0.8699 92.9737 0003453 32.9840 172.9031 1.00273049 73582

Live tracking and technical data element details for INTELSAT 805 (IS-805) (NORAD 25371). INTELSAT 805 (IS-805) can be tracked NOW for your location showing map with azimuth and elevation plus other details from your city location.

Track the satellite on the map from your city or location and see movement details for azimuth, elevation, latitude, longitude, range, height, and movement on the map or in text.







IsCatalogInMostPopularTable: catalog: 25371, numindb: 34
Update: records affected: 1



GetName: 25371 INTELSAT 805 (IS-805)

Hit Count: updated at: Sat, 21 Jul 2018 07:51:14 GMT